Showing default

MOZHAYETS 4, 27939

Orbit data source: Space-Track

MOZHAYETS 4, 27939 is a payload satellite owned by Mozhaiskiy (CIS) in SSO that was launched on Sat, 27 Sep 2003 UTC via a KOSMOS 11K65M launch vehicle from the Plesetsk Missile And Space Complex (PKMTR). Payload-class satellites include a variety of spacecraft equipped with specific instruments for various scientific and technological missions. These include communications satellites like Starlink; space stations such as the ISS; scientific satellites like the Hubble; Earth observation satellites from companies like Planet Labs, Umbra, and HawkEye 360; GPS; miniature CubeSats for education and research; and military/defense satellites.

Loading next visibility...
Identifier
27939, 2003-042A
Orbit
SSO
Country
Flag of CISCIS
Related business
Manufacturer
NPO PM
Mission
Operational Civil Technology
Bus & Motor
STRELA-1M, Unknown motor
Mass
64 kg wet, 64 kg dry
Launch date (UTC)
2003-09-27 (22 years ago)
Launch vehicle
KOSMOS 11K65M
Launch site
Plesetsk Missile And Space Complex (PKMTR)
Object type
Payload
Rocket body
Debris
Shape & HBR
Poly, 0.5 m
Radar Cross Section
1.143 m², Medium (>0.1 m² and < 1m²)

Expand to show TLE details & history
Last TLE update: 10 hours ago

TLE from 10 hours ago
0 MOZHAYETS 4
1 27939U 03042A   26034.63042576  .00001800  00000-0  28734-3 0  9993
2 27939  98.3391 215.2524 0010950 337.9240 112.1583 14.73152198195882
Epoch: 2026-02-03T15:07Z
TLE epoch observation values (Epoch: 2026-02-03T15:07:48.785Z)
Latitude
81.70294°
Longitude
123.12113°
Altitude
667.404 km
Speed
7.529 km/s
True Right ascension
08h 15m 31s
True Declination
81° 39' 11"
Sunlit
Object was in daylight at epoch
Visualization orbit readout
Latitude
Unknown
Longitude
Unknown
Altitude
Unknown
Speed
Unknown
Apparent Right ascension
Unknown
Apparent Declination
Unknown
Sunlit
N/A
Visualization observer readout
Local Sidereal Time
03:04:27
Azimuth
Unknown
Elevation
Unknown
Doppler factor
Unknown
Orbital elements
Apogee altitude
655.787 km
Perigee altitude
640.399 km
Semi-major axis
7,026.23 km
Eccentricity
0.0011
Inclination
98.3391°
RAAN
215.2524°
Arg. of periapsis
337.924°
True anomaly
112.27445°
Mean anomaly
112.1583°
Eccentric anomaly
112.21638°
Mean motion
3.68519 °/min
Orbital period
97.69 mins
BSTAR
0.00028734
Loading maneuver chart data...
Computing Atmospheric mass density...
Loading historical data...
Loading historical data...
Loading historical data...
Loading historical data...
Loading historical data...
Loading historical data...
Loading historical data...
Other satellites on launch #42 in the year 2003 (2003-09-27 UTC)

Documentation

Showing up to 5 results
|